owner,sensor,date,latitude,longitude,vertical_datum,sea_water_temperature,qcFlag
Chevron,ioos:station:wmo:42876:1,2021-02-01T00:06:00Z,26.3186,-91.0880,24.2,21.6,11111222
Chevron,ioos:station:wmo:42876:1,2021-02-01T00:16:00Z,26.3186,-91.0880,24.0,21.6,11111222
Chevron,ioos:station:wmo:42876:1,2021-02-01T00:26:00Z,26.3186,-91.0880,24.0,21.5,11111222
Chevron,ioos:station:wmo:42876:1,2021-02-01T00:36:00Z,26.3186,-91.0880,23.8,21.6,11111222
Chevron,ioos:station:wmo:42876:1,2021-02-01T00:46:00Z,26.3186,-91.0880,24.0,21.5,11111222
Chevron,ioos:station:wmo:42876:1,2021-02-01T00:56:00Z,26.3186,-91.0880,23.9,21.5,11111222
Chevron,ioos:station:wmo:42876:1,2021-02-01T01:06:00Z,26.3186,-91.0880,24.0,21.5,11111222
Chevron,ioos:station:wmo:42876:1,2021-02-01T01:16:00Z,26.3186,-91.0880,23.7,21.5,11111222
Chevron,ioos:station:wmo:42876:1,2021-02-01T01:26:00Z,26.3186,-91.0880,23.8,21.5,11111222
Chevron,ioos:station:wmo:42876:1,2021-02-01T01:36:00Z,26.3186,-91.0880,24.0,21.5,11111222
Chevron,ioos:station:wmo:42876:1,2021-02-01T01:46:00Z,26.3186,-91.0880,23.7,21.5,11111222
Chevron,ioos:station:wmo:42876:1,2021-02-01T01:56:00Z,26.3186,-91.0880,24.3,21.5,11111222
Chevron,ioos:station:wmo:42876:1,2021-02-01T02:06:00Z,26.3186,-91.0880,23.8,21.5,11111222
Chevron,ioos:station:wmo:42876:1,2021-02-01T02:16:00Z,26.3186,-91.0880,24.0,21.5,11111222
Chevron,ioos:station:wmo:42876:1,2021-02-01T02:26:00Z,26.3186,-91.0880,24.2,21.5,11111222
Chevron,ioos:station:wmo:42876:1,2021-02-01T02:36:00Z,26.3187,-91.0880,24.3,21.5,11111222
Chevron,ioos:station:wmo:42876:1,2021-02-01T02:46:00Z,26.3187,-91.0880,24.5,21.5,11111222
Chevron,ioos:station:wmo:42876:1,2021-02-01T02:56:00Z,26.3186,-91.0880,24.0,21.5,11111222
Chevron,ioos:station:wmo:42876:1,2021-02-01T03:06:00Z,26.3187,-91.0880,24.2,21.5,11111222
Chevron,ioos:station:wmo:42876:1,2021-02-01T03:16:00Z,26.3187,-91.0880,24.2,21.5,11111222
Chevron,ioos:station:wmo:42876:1,2021-02-01T03:26:00Z,26.3187,-91.0880,24.1,21.5,11111222
Chevron,ioos:station:wmo:42876:1,2021-02-01T03:36:00Z,26.3186,-91.0880,24.4,21.5,11111222
Chevron,ioos:station:wmo:42876:1,2021-02-01T03:46:00Z,26.3187,-91.0880,24.3,21.5,11111222
Chevron,ioos:station:wmo:42876:1,2021-02-01T03:56:00Z,26.3187,-91.0880,24.3,21.6,11111222
Chevron,ioos:station:wmo:42876:1,2021-02-01T04:06:00Z,26.3187,-91.0880,24.5,21.6,11111222
Chevron,ioos:station:wmo:42876:1,2021-02-01T04:16:00Z,26.3187,-91.0880,24.3,21.6,11111222
Chevron,ioos:station:wmo:42876:1,2021-02-01T04:26:00Z,26.3187,-91.0880,24.1,21.6,11111222
Chevron,ioos:station:wmo:42876:1,2021-02-01T04:36:00Z,26.3186,-91.0880,24.0,21.6,11111222
Chevron,ioos:station:wmo:42876:1,2021-02-01T04:46:00Z,26.3186,-91.0880,24.0,21.6,11111222
Chevron,ioos:station:wmo:42876:1,2021-02-01T04:56:00Z,26.3186,-91.0880,24.2,21.6,11111222
Chevron,ioos:station:wmo:42876:1,2021-02-01T05:06:00Z,26.3186,-91.0880,24.1,21.6,11111222
Chevron,ioos:station:wmo:42876:1,2021-02-01T05:16:00Z,26.3186,-91.0880,24.2,21.6,11111222
Chevron,ioos:station:wmo:42876:1,2021-02-01T05:26:00Z,26.3186,-91.0880,24.3,21.6,11111222
Chevron,ioos:station:wmo:42876:1,2021-02-01T05:36:00Z,26.3187,-91.0880,23.9,21.7,11111222
Chevron,ioos:station:wmo:42876:1,2021-02-01T05:46:00Z,26.3186,-91.0880,24.2,21.7,11111222
Chevron,ioos:station:wmo:42876:1,2021-02-01T05:56:00Z,26.3186,-91.0880,24.0,21.7,11111222
Chevron,ioos:station:wmo:42876:1,2021-02-01T06:06:00Z,26.3186,-91.0880,24.3,21.7,11111222
Chevron,ioos:station:wmo:42876:1,2021-02-01T06:16:00Z,26.3187,-91.0880,24.2,21.7,11111222
Chevron,ioos:station:wmo:42876:1,2021-02-01T06:26:00Z,26.3187,-91.0880,24.0,21.7,11111222
Chevron,ioos:station:wmo:42876:1,2021-02-01T06:36:00Z,26.3187,-91.0880,23.9,21.7,11111222
Chevron,ioos:station:wmo:42876:1,2021-02-01T06:46:00Z,26.3187,-91.0880,23.9,21.7,11111222
Chevron,ioos:station:wmo:42876:1,2021-02-01T06:56:00Z,26.3186,-91.0880,24.1,21.7,11111222
Chevron,ioos:station:wmo:42876:1,2021-02-01T07:06:00Z,26.3186,-91.0880,24.1,21.7,11111222
Chevron,ioos:station:wmo:42876:1,2021-02-01T07:16:00Z,26.3187,-91.0880,24.0,21.7,11111222
Chevron,ioos:station:wmo:42876:1,2021-02-01T07:26:00Z,26.3186,-91.0880,24.1,21.7,11111222
Chevron,ioos:station:wmo:42876:1,2021-02-01T07:36:00Z,26.3186,-91.0880,24.0,21.7,11111222
Chevron,ioos:station:wmo:42876:1,2021-02-01T07:46:00Z,26.3187,-91.0880,24.2,21.8,11111222
Chevron,ioos:station:wmo:42876:1,2021-02-01T07:56:00Z,26.3187,-91.0880,24.3,21.8,11111222
Chevron,ioos:station:wmo:42876:1,2021-02-01T08:06:00Z,26.3186,-91.0880,24.2,21.7,11111222
Chevron,ioos:station:wmo:42876:1,2021-02-01T08:16:00Z,26.3186,-91.0880,24.4,21.7,11111222
Chevron,ioos:station:wmo:42876:1,2021-02-01T08:26:00Z,26.3187,-91.0880,24.1,21.7,11111222
Chevron,ioos:station:wmo:42876:1,2021-02-01T08:36:00Z,26.3187,-91.0880,24.7,21.7,11111222
Chevron,ioos:station:wmo:42876:1,2021-02-01T08:46:00Z,26.3187,-91.0880,24.5,21.7,11111222
Chevron,ioos:station:wmo:42876:1,2021-02-01T08:56:00Z,26.3187,-91.0880,24.2,21.7,11111222
Chevron,ioos:station:wmo:42876:1,2021-02-01T09:06:00Z,26.3187,-91.0880,24.4,21.7,11111222
Chevron,ioos:station:wmo:42876:1,2021-02-01T09:16:00Z,26.3186,-91.0880,24.2,21.7,11111222
Chevron,ioos:station:wmo:42876:1,2021-02-01T09:26:00Z,26.3187,-91.0880,24.3,21.7,11111222
Chevron,ioos:station:wmo:42876:1,2021-02-01T09:36:00Z,26.3187,-91.0880,24.5,21.7,11111222
Chevron,ioos:station:wmo:42876:1,2021-02-01T09:46:00Z,26.3187,-91.0880,24.5,21.7,11111222
Chevron,ioos:station:wmo:42876:1,2021-02-01T09:56:00Z,26.3187,-91.0880,24.4,21.7,11111222
Chevron,ioos:station:wmo:42876:1,2021-02-01T10:06:00Z,26.3186,-91.0880,24.6,21.7,11111222
Chevron,ioos:station:wmo:42876:1,2021-02-01T10:16:00Z,26.3186,-91.0880,24.6,21.7,11111222
Chevron,ioos:station:wmo:42876:1,2021-02-01T10:26:00Z,26.3186,-91.0880,24.1,21.7,11111222
Chevron,ioos:station:wmo:42876:1,2021-02-01T10:36:00Z,26.3187,-91.0880,24.2,21.7,11111222
Chevron,ioos:station:wmo:42876:1,2021-02-01T10:46:00Z,26.3187,-91.0880,24.2,21.7,11111222
Chevron,ioos:station:wmo:42876:1,2021-02-01T10:56:00Z,26.3186,-91.0880,24.4,21.7,11111222
Chevron,ioos:station:wmo:42876:1,2021-02-01T11:06:00Z,26.3187,-91.0880,24.6,21.7,11111222
Chevron,ioos:station:wmo:42876:1,2021-02-01T11:16:00Z,26.3187,-91.0880,24.4,21.7,11111222
Chevron,ioos:station:wmo:42876:1,2021-02-01T11:26:00Z,26.3186,-91.0880,24.4,21.7,11111222
Chevron,ioos:station:wmo:42876:1,2021-02-01T11:36:00Z,26.3186,-91.0880,24.7,21.7,11111222
Chevron,ioos:station:wmo:42876:1,2021-02-01T11:46:00Z,26.3187,-91.0880,24.4,21.7,11111222
Chevron,ioos:station:wmo:42876:1,2021-02-01T11:56:00Z,26.3187,-91.0880,24.4,21.7,11111222
Chevron,ioos:station:wmo:42876:1,2021-02-01T12:06:00Z,26.3187,-91.0880,24.7,21.7,11111222
Chevron,ioos:station:wmo:42876:1,2021-02-01T12:16:00Z,26.3186,-91.0880,24.7,21.7,11111222
Chevron,ioos:station:wmo:42876:1,2021-02-01T12:26:00Z,26.3187,-91.0880,24.4,21.7,11111222
Chevron,ioos:station:wmo:42876:1,2021-02-01T12:36:00Z,26.3187,-91.0880,24.7,21.7,11111222
Chevron,ioos:station:wmo:42876:1,2021-02-01T12:46:00Z,26.3187,-91.0880,24.5,21.7,11111222
Chevron,ioos:station:wmo:42876:1,2021-02-01T12:56:00Z,26.3186,-91.0880,24.6,21.7,11111222
Chevron,ioos:station:wmo:42876:1,2021-02-01T13:06:00Z,26.3187,-91.0880,24.2,21.7,11111222
Chevron,ioos:station:wmo:42876:1,2021-02-01T13:16:00Z,26.3187,-91.0880,24.4,21.7,11111222
Chevron,ioos:station:wmo:42876:1,2021-02-01T13:26:00Z,26.3186,-91.0880,24.3,21.7,11111222
Chevron,ioos:station:wmo:42876:1,2021-02-01T13:36:00Z,26.3186,-91.0880,24.4,21.7,11111222
Chevron,ioos:station:wmo:42876:1,2021-02-01T13:46:00Z,26.3186,-91.0880,24.1,21.7,11111222
Chevron,ioos:station:wmo:42876:1,2021-02-01T13:56:00Z,26.3187,-91.0880,24.5,21.6,11111222
Chevron,ioos:station:wmo:42876:1,2021-02-01T14:06:00Z,26.3186,-91.0880,24.6,21.6,11111222
Chevron,ioos:station:wmo:42876:1,2021-02-01T14:16:00Z,26.3186,-91.0880,24.5,21.6,11111222
Chevron,ioos:station:wmo:42876:1,2021-02-01T14:26:00Z,26.3187,-91.0880,24.8,21.6,11111222
Chevron,ioos:station:wmo:42876:1,2021-02-01T14:36:00Z,26.3187,-91.0880,24.6,21.6,11111222
Chevron,ioos:station:wmo:42876:1,2021-02-01T14:46:00Z,26.3187,-91.0880,24.8,21.6,11111222
Chevron,ioos:station:wmo:42876:1,2021-02-01T14:56:00Z,26.3186,-91.0880,24.5,21.6,11111222
Chevron,ioos:station:wmo:42876:1,2021-02-01T15:06:00Z,26.3187,-91.0880,24.4,21.6,11111222
Chevron,ioos:station:wmo:42876:1,2021-02-01T15:16:00Z,26.3186,-91.0880,24.6,21.6,11111222
Chevron,ioos:station:wmo:42876:1,2021-02-01T15:26:00Z,26.3186,-91.0880,24.2,21.6,11111222
Chevron,ioos:station:wmo:42876:1,2021-02-01T15:36:00Z,26.3187,-91.0880,24.7,21.6,11111222
Chevron,ioos:station:wmo:42876:1,2021-02-01T15:46:00Z,26.3186,-91.0880,24.6,21.6,11111222
Chevron,ioos:station:wmo:42876:1,2021-02-01T15:56:00Z,26.3186,-91.0880,24.6,21.6,11111222
Chevron,ioos:station:wmo:42876:1,2021-02-01T16:06:00Z,26.3186,-91.0880,24.7,21.6,11111222
Chevron,ioos:station:wmo:42876:1,2021-02-01T16:16:00Z,26.3187,-91.0880,24.3,21.6,11111222
Chevron,ioos:station:wmo:42876:1,2021-02-01T16:26:00Z,26.3186,-91.0880,24.4,21.6,11111222
Chevron,ioos:station:wmo:42876:1,2021-02-01T16:36:00Z,26.3186,-91.0880,24.2,21.6,11111222
Chevron,ioos:station:wmo:42876:1,2021-02-01T16:46:00Z,26.3186,-91.0880,24.3,21.6,11111222
Chevron,ioos:station:wmo:42876:1,2021-02-01T16:56:00Z,26.3187,-91.0880,24.4,21.6,11111222
Chevron,ioos:station:wmo:42876:1,2021-02-01T17:06:00Z,26.3186,-91.0880,24.5,21.6,11111222
Chevron,ioos:station:wmo:42876:1,2021-02-01T17:16:00Z,26.3187,-91.0880,24.5,21.5,11111222
Chevron,ioos:station:wmo:42876:1,2021-02-01T17:26:00Z,26.3186,-91.0880,24.4,21.5,11111222
Chevron,ioos:station:wmo:42876:1,2021-02-01T17:36:00Z,26.3186,-91.0880,24.3,21.5,11111222
Chevron,ioos:station:wmo:42876:1,2021-02-01T17:46:00Z,26.3186,-91.0880,24.4,21.5,11111222
Chevron,ioos:station:wmo:42876:1,2021-02-01T17:56:00Z,26.3186,-91.0880,24.7,21.5,11111222
Chevron,ioos:station:wmo:42876:1,2021-02-01T18:06:00Z,26.3186,-91.0880,24.9,21.5,11111222
Chevron,ioos:station:wmo:42876:1,2021-02-01T18:16:00Z,26.3186,-91.0880,24.9,21.5,11111222
Chevron,ioos:station:wmo:42876:1,2021-02-01T18:26:00Z,26.3186,-91.0880,24.6,21.5,11111222
Chevron,ioos:station:wmo:42876:1,2021-02-01T18:36:00Z,26.3187,-91.0880,24.5,21.5,11111222
Chevron,ioos:station:wmo:42876:1,2021-02-01T18:46:00Z,26.3186,-91.0880,24.6,21.5,11111222
Chevron,ioos:station:wmo:42876:1,2021-02-01T18:56:00Z,26.3186,-91.0880,24.7,21.5,11111222
Chevron,ioos:station:wmo:42876:1,2021-02-01T19:06:00Z,26.3187,-91.0880,24.7,21.5,11111222
Chevron,ioos:station:wmo:42876:1,2021-02-01T19:16:00Z,26.3186,-91.0880,24.9,21.5,11111222
Chevron,ioos:station:wmo:42876:1,2021-02-01T19:26:00Z,26.3187,-91.0880,24.5,21.5,11111222
Chevron,ioos:station:wmo:42876:1,2021-02-01T19:36:00Z,26.3186,-91.0880,24.5,21.5,11111222
Chevron,ioos:station:wmo:42876:1,2021-02-01T19:46:00Z,26.3186,-91.0880,24.8,21.5,11111222
Chevron,ioos:station:wmo:42876:1,2021-02-01T19:56:00Z,26.3187,-91.0880,24.8,21.5,11111222
Chevron,ioos:station:wmo:42876:1,2021-02-01T20:06:00Z,26.3186,-91.0880,25.0,21.5,11111222
Chevron,ioos:station:wmo:42876:1,2021-02-01T20:16:00Z,26.3187,-91.0880,24.8,21.5,11111222
Chevron,ioos:station:wmo:42876:1,2021-02-01T20:26:00Z,26.3186,-91.0880,24.9,21.5,11111222
Chevron,ioos:station:wmo:42876:1,2021-02-01T20:36:00Z,26.3186,-91.0880,24.8,21.5,11111222
Chevron,ioos:station:wmo:42876:1,2021-02-01T20:46:00Z,26.3187,-91.0880,25.3,21.5,11111222
Chevron,ioos:station:wmo:42876:1,2021-02-01T20:56:00Z,26.3187,-91.0880,24.8,21.6,11111222
Chevron,ioos:station:wmo:42876:1,2021-02-01T21:06:00Z,26.3186,-91.0880,24.8,21.6,11111222
Chevron,ioos:station:wmo:42876:1,2021-02-01T21:16:00Z,26.3187,-91.0880,24.7,21.6,11111222
Chevron,ioos:station:wmo:42876:1,2021-02-01T21:26:00Z,26.3186,-91.0880,24.3,21.6,11111222
Chevron,ioos:station:wmo:42876:1,2021-02-01T21:36:00Z,26.3190,-91.0868,24.7,21.6,11111222
Chevron,ioos:station:wmo:42876:1,2021-02-01T21:46:00Z,26.3194,-91.0853,24.5,21.6,11111222
Chevron,ioos:station:wmo:42876:1,2021-02-01T21:56:00Z,26.3197,-91.0838,24.0,21.6,11111222
Chevron,ioos:station:wmo:42876:1,2021-02-01T22:06:00Z,26.3198,-91.0834,24.1,21.6,11111222
Chevron,ioos:station:wmo:42876:1,2021-02-01T22:16:00Z,26.3198,-91.0834,25.1,21.6,11111222
Chevron,ioos:station:wmo:42876:1,2021-02-01T22:26:00Z,26.3198,-91.0835,24.5,21.6,11111222
Chevron,ioos:station:wmo:42876:1,2021-02-01T22:36:00Z,26.3198,-91.0835,24.5,21.6,11111222
Chevron,ioos:station:wmo:42876:1,2021-02-01T22:46:00Z,26.3198,-91.0834,24.9,21.6,11111222
Chevron,ioos:station:wmo:42876:1,2021-02-01T22:56:00Z,26.3198,-91.0834,24.6,21.7,11111222
Chevron,ioos:station:wmo:42876:1,2021-02-01T23:06:00Z,26.3198,-91.0835,24.9,21.7,11111222
Chevron,ioos:station:wmo:42876:1,2021-02-01T23:16:00Z,26.3198,-91.0835,25.0,21.7,11111222
Chevron,ioos:station:wmo:42876:1,2021-02-01T23:26:00Z,26.3198,-91.0835,24.7,21.7,11111222
Chevron,ioos:station:wmo:42876:1,2021-02-01T23:36:00Z,26.3198,-91.0835,24.8,21.7,11111222
Chevron,ioos:station:wmo:42876:1,2021-02-01T23:46:00Z,26.3198,-91.0834,24.7,21.7,11111222
Chevron,ioos:station:wmo:42876:1,2021-02-01T23:56:00Z,26.3198,-91.0835,24.8,21.6,11111222
Chevron,ioos:station:wmo:42876:1,2021-02-02T00:06:00Z,26.3198,-91.0834,24.7,21.7,11111222
Chevron,ioos:station:wmo:42876:1,2021-02-02T00:16:00Z,26.3198,-91.0835,24.7,21.7,11111222
Chevron,ioos:station:wmo:42876:1,2021-02-02T00:26:00Z,26.3198,-91.0834,24.5,21.6,11111222
Chevron,ioos:station:wmo:42876:1,2021-02-02T00:36:00Z,26.3198,-91.0835,24.6,21.7,11111222
Chevron,ioos:station:wmo:42876:1,2021-02-02T00:46:00Z,26.3198,-91.0835,24.5,21.6,11111222
Chevron,ioos:station:wmo:42876:1,2021-02-02T00:56:00Z,26.3198,-91.0835,24.6,21.6,11111222
Chevron,ioos:station:wmo:42876:1,2021-02-02T01:06:00Z,26.3198,-91.0835,24.5,21.6,11111222
Chevron,ioos:station:wmo:42876:1,2021-02-02T01:16:00Z,26.3198,-91.0834,24.5,21.6,11111222
Chevron,ioos:station:wmo:42876:1,2021-02-02T01:26:00Z,26.3198,-91.0834,24.3,21.6,11111222
Chevron,ioos:station:wmo:42876:1,2021-02-02T01:36:00Z,26.3198,-91.0835,24.6,21.6,11111222
Chevron,ioos:station:wmo:42876:1,2021-02-02T01:46:00Z,26.3198,-91.0835,24.7,21.6,11111222
Chevron,ioos:station:wmo:42876:1,2021-02-02T01:56:00Z,26.3198,-91.0835,24.5,21.6,11111222
Chevron,ioos:station:wmo:42876:1,2021-02-02T02:06:00Z,26.3198,-91.0835,24.6,21.6,11111222
Chevron,ioos:station:wmo:42876:1,2021-02-02T02:16:00Z,26.3196,-91.0836,24.8,21.6,11111222
Chevron,ioos:station:wmo:42876:1,2021-02-02T02:26:00Z,26.3183,-91.0842,24.7,21.6,11111222
Chevron,ioos:station:wmo:42876:1,2021-02-02T02:36:00Z,26.3170,-91.0847,24.9,21.6,11111222
Chevron,ioos:station:wmo:42876:1,2021-02-02T02:46:00Z,26.3157,-91.0853,24.7,21.6,11111222
Chevron,ioos:station:wmo:42876:1,2021-02-02T02:56:00Z,26.3144,-91.0859,24.9,21.6,11111222
Chevron,ioos:station:wmo:42876:1,2021-02-02T03:06:00Z,26.3131,-91.0865,24.7,21.6,11111222
Chevron,ioos:station:wmo:42876:1,2021-02-02T03:16:00Z,26.3118,-91.0871,25.0,21.6,11111222
Chevron,ioos:station:wmo:42876:1,2021-02-02T03:26:00Z,26.3105,-91.0876,25.0,21.6,11111222
Chevron,ioos:station:wmo:42876:1,2021-02-02T03:36:00Z,26.3092,-91.0882,24.9,21.6,11111222
Chevron,ioos:station:wmo:42876:1,2021-02-02T03:46:00Z,26.3079,-91.0888,25.0,21.6,11111222
Chevron,ioos:station:wmo:42876:1,2021-02-02T03:56:00Z,26.3066,-91.0894,24.5,21.6,11111222
Chevron,ioos:station:wmo:42876:1,2021-02-02T04:06:00Z,26.3053,-91.0899,24.8,21.6,11111222
Chevron,ioos:station:wmo:42876:1,2021-02-02T04:16:00Z,26.3040,-91.0905,24.8,21.6,11111222
Chevron,ioos:station:wmo:42876:1,2021-02-02T04:26:00Z,26.3028,-91.0911,24.5,21.6,11111222
Chevron,ioos:station:wmo:42876:1,2021-02-02T04:36:00Z,26.3015,-91.0917,24.3,21.6,11111222
Chevron,ioos:station:wmo:42876:1,2021-02-02T04:46:00Z,26.3002,-91.0923,24.7,21.6,11111222
Chevron,ioos:station:wmo:42876:1,2021-02-02T04:56:00Z,26.2991,-91.0928,24.6,21.6,11111222
Chevron,ioos:station:wmo:42876:1,2021-02-02T05:06:00Z,26.2991,-91.0927,24.5,21.6,11111222
Chevron,ioos:station:wmo:42876:1,2021-02-02T05:16:00Z,26.2991,-91.0928,24.5,21.6,11111222
Chevron,ioos:station:wmo:42876:1,2021-02-02T05:26:00Z,26.2991,-91.0928,24.8,21.6,11111222
Chevron,ioos:station:wmo:42876:1,2021-02-02T05:36:00Z,26.2991,-91.0928,24.5,21.6,11111222
Chevron,ioos:station:wmo:42876:1,2021-02-02T05:46:00Z,26.2991,-91.0928,24.7,21.6,11111222
Chevron,ioos:station:wmo:42876:1,2021-02-02T05:56:00Z,26.2991,-91.0928,24.7,21.6,11111222
Chevron,ioos:station:wmo:42876:1,2021-02-02T06:06:00Z,26.2991,-91.0927,24.4,21.6,11111222
Chevron,ioos:station:wmo:42876:1,2021-02-02T06:16:00Z,26.2991,-91.0928,24.7,21.6,11111222
Chevron,ioos:station:wmo:42876:1,2021-02-02T06:26:00Z,26.2991,-91.0928,24.4,21.6,11111222
Chevron,ioos:station:wmo:42876:1,2021-02-02T06:36:00Z,26.2991,-91.0927,24.5,21.6,11111222
Chevron,ioos:station:wmo:42876:1,2021-02-02T06:46:00Z,26.2991,-91.0928,25.1,21.6,11111222
Chevron,ioos:station:wmo:42876:1,2021-02-02T06:56:00Z,26.2991,-91.0928,24.9,21.6,11111222
Chevron,ioos:station:wmo:42876:1,2021-02-02T07:06:00Z,26.2991,-91.0928,24.7,21.6,11111222
Chevron,ioos:station:wmo:42876:1,2021-02-02T07:16:00Z,26.2991,-91.0928,25.0,21.6,11111222
Chevron,ioos:station:wmo:42876:1,2021-02-02T07:26:00Z,26.2991,-91.0928,25.0,21.6,11111222
Chevron,ioos:station:wmo:42876:1,2021-02-02T07:36:00Z,26.2991,-91.0928,24.9,21.6,11111222
Chevron,ioos:station:wmo:42876:1,2021-02-02T07:46:00Z,26.2991,-91.0928,24.9,21.6,11111222
Chevron,ioos:station:wmo:42876:1,2021-02-02T07:56:00Z,26.2991,-91.0928,24.8,21.6,11111222
Chevron,ioos:station:wmo:42876:1,2021-02-02T08:06:00Z,26.2991,-91.0927,24.5,21.6,11111222
Chevron,ioos:station:wmo:42876:1,2021-02-02T08:16:00Z,26.2991,-91.0928,24.4,21.6,11111222
Chevron,ioos:station:wmo:42876:1,2021-02-02T08:26:00Z,26.2991,-91.0928,24.9,21.6,11111222
Chevron,ioos:station:wmo:42876:1,2021-02-02T08:36:00Z,26.2991,-91.0928,24.8,21.6,11111222
Chevron,ioos:station:wmo:42876:1,2021-02-02T08:46:00Z,26.2991,-91.0928,24.4,21.6,11111222
Chevron,ioos:station:wmo:42876:1,2021-02-02T08:56:00Z,26.2991,-91.0928,24.4,21.6,11111222
Chevron,ioos:station:wmo:42876:1,2021-02-02T09:06:00Z,26.2991,-91.0928,24.8,21.6,11111222
Chevron,ioos:station:wmo:42876:1,2021-02-02T09:16:00Z,26.2991,-91.0927,24.4,21.6,11111222
Chevron,ioos:station:wmo:42876:1,2021-02-02T09:26:00Z,26.2991,-91.0928,24.7,21.6,11111222
Chevron,ioos:station:wmo:42876:1,2021-02-02T09:36:00Z,26.2991,-91.0928,24.6,21.6,11111222
Chevron,ioos:station:wmo:42876:1,2021-02-02T09:46:00Z,26.2991,-91.0927,24.3,21.6,11111222
Chevron,ioos:station:wmo:42876:1,2021-02-02T09:56:00Z,26.2991,-91.0928,24.4,21.6,11111222
Chevron,ioos:station:wmo:42876:1,2021-02-02T10:06:00Z,26.2991,-91.0928,24.5,21.6,11111222
Chevron,ioos:station:wmo:42876:1,2021-02-02T10:16:00Z,26.2991,-91.0928,24.6,21.6,11111222
Chevron,ioos:station:wmo:42876:1,2021-02-02T10:26:00Z,26.2991,-91.0928,24.6,21.6,11111222
Chevron,ioos:station:wmo:42876:1,2021-02-02T10:36:00Z,26.2991,-91.0928,24.5,21.6,11111222
Chevron,ioos:station:wmo:42876:1,2021-02-02T10:46:00Z,26.2991,-91.0928,24.8,21.6,11111222
Chevron,ioos:station:wmo:42876:1,2021-02-02T10:56:00Z,26.2991,-91.0928,24.4,21.6,11111222
Chevron,ioos:station:wmo:42876:1,2021-02-02T11:06:00Z,26.2991,-91.0928,24.6,21.6,11111222
Chevron,ioos:station:wmo:42876:1,2021-02-02T11:16:00Z,26.2991,-91.0928,24.8,21.6,11111222
Chevron,ioos:station:wmo:42876:1,2021-02-02T11:26:00Z,26.2991,-91.0928,24.5,21.6,11111222
Chevron,ioos:station:wmo:42876:1,2021-02-02T11:36:00Z,26.2991,-91.0928,24.5,21.6,11111222
Chevron,ioos:station:wmo:42876:1,2021-02-02T11:46:00Z,26.2991,-91.0928,24.2,21.6,11111222
Chevron,ioos:station:wmo:42876:1,2021-02-02T11:56:00Z,26.2991,-91.0928,24.6,21.6,11111222
Chevron,ioos:station:wmo:42876:1,2021-02-02T12:06:00Z,26.2991,-91.0928,24.9,21.6,11111222
Chevron,ioos:station:wmo:42876:1,2021-02-02T12:16:00Z,26.2991,-91.0928,24.5,21.6,11111222
Chevron,ioos:station:wmo:42876:1,2021-02-02T12:26:00Z,26.2997,-91.0924,24.6,21.6,11111222
Chevron,ioos:station:wmo:42876:1,2021-02-02T12:36:00Z,26.2999,-91.0924,25.0,21.6,11111222
Chevron,ioos:station:wmo:42876:1,2021-02-02T12:46:00Z,26.2999,-91.0924,24.6,21.6,11111222
Chevron,ioos:station:wmo:42876:1,2021-02-02T12:56:00Z,26.2999,-91.0924,24.3,21.6,11111222
Chevron,ioos:station:wmo:42876:1,2021-02-02T13:06:00Z,26.2999,-91.0924,24.4,21.6,11111222
Chevron,ioos:station:wmo:42876:1,2021-02-02T13:16:00Z,26.2999,-91.0924,24.7,21.6,11111222
Chevron,ioos:station:wmo:42876:1,2021-02-02T13:26:00Z,26.2999,-91.0924,24.5,21.5,11111222
Chevron,ioos:station:wmo:42876:1,2021-02-02T13:36:00Z,26.2999,-91.0924,24.5,21.6,11111222
Chevron,ioos:station:wmo:42876:1,2021-02-02T13:46:00Z,26.2999,-91.0924,24.6,21.5,11111222
Chevron,ioos:station:wmo:42876:1,2021-02-02T13:56:00Z,26.2998,-91.0923,24.7,21.5,11111222
Chevron,ioos:station:wmo:42876:1,2021-02-02T14:06:00Z,26.2993,-91.0917,24.9,21.5,11111222
Chevron,ioos:station:wmo:42876:1,2021-02-02T14:16:00Z,26.2987,-91.0910,24.6,21.5,11111222
Chevron,ioos:station:wmo:42876:1,2021-02-02T14:26:00Z,26.2981,-91.0904,24.8,21.5,11111222
Chevron,ioos:station:wmo:42876:1,2021-02-02T14:36:00Z,26.2979,-91.0902,24.5,21.6,11111222
Chevron,ioos:station:wmo:42876:1,2021-02-02T14:46:00Z,26.2979,-91.0901,24.8,21.5,11111222
Chevron,ioos:station:wmo:42876:1,2021-02-02T14:56:00Z,26.2979,-91.0904,24.9,21.6,11111222
Chevron,ioos:station:wmo:42876:1,2021-02-02T15:06:00Z,26.2980,-91.0907,24.9,21.6,11111222
Chevron,ioos:station:wmo:42876:1,2021-02-02T15:16:00Z,26.2980,-91.0907,24.8,21.6,11111222
Chevron,ioos:station:wmo:42876:1,2021-02-02T15:26:00Z,26.2980,-91.0907,24.9,21.6,11111222
Chevron,ioos:station:wmo:42876:1,2021-02-02T15:36:00Z,26.2980,-91.0907,24.7,21.6,11111222
Chevron,ioos:station:wmo:42876:1,2021-02-02T15:46:00Z,26.2980,-91.0908,24.9,21.6,11111222
Chevron,ioos:station:wmo:42876:1,2021-02-02T15:56:00Z,26.2980,-91.0908,25.2,21.6,11111222
Chevron,ioos:station:wmo:42876:1,2021-02-02T16:06:00Z,26.2980,-91.0908,24.8,21.6,11111222
Chevron,ioos:station:wmo:42876:1,2021-02-02T16:16:00Z,26.2980,-91.0909,24.6,21.6,11111222
Chevron,ioos:station:wmo:42876:1,2021-02-02T16:26:00Z,26.2980,-91.0918,24.9,21.6,11111222
Chevron,ioos:station:wmo:42876:1,2021-02-02T16:36:00Z,26.2980,-91.0929,24.8,21.6,11111222
Chevron,ioos:station:wmo:42876:1,2021-02-02T16:46:00Z,26.2980,-91.0944,24.5,21.6,11111222
Chevron,ioos:station:wmo:42876:1,2021-02-02T16:56:00Z,26.2980,-91.0947,24.7,21.6,11111222
Chevron,ioos:station:wmo:42876:1,2021-02-02T17:06:00Z,26.2980,-91.0947,24.6,21.6,11111222
Chevron,ioos:station:wmo:42876:1,2021-02-02T17:16:00Z,26.2980,-91.0947,24.6,21.6,11111222
Chevron,ioos:station:wmo:42876:1,2021-02-02T17:26:00Z,26.2980,-91.0947,24.5,21.6,11111222
Chevron,ioos:station:wmo:42876:1,2021-02-02T17:36:00Z,26.2980,-91.0947,24.5,21.6,11111222
Chevron,ioos:station:wmo:42876:1,2021-02-02T17:46:00Z,26.2980,-91.0947,24.8,21.6,11111222
Chevron,ioos:station:wmo:42876:1,2021-02-02T17:56:00Z,26.2980,-91.0947,24.5,21.6,11111222
Chevron,ioos:station:wmo:42876:1,2021-02-02T18:06:00Z,26.2980,-91.0947,24.6,21.6,11111222
Chevron,ioos:station:wmo:42876:1,2021-02-02T18:16:00Z,26.2980,-91.0947,24.4,21.6,11111222
Chevron,ioos:station:wmo:42876:1,2021-02-02T18:26:00Z,26.2980,-91.0947,24.8,21.6,11111222
Chevron,ioos:station:wmo:42876:1,2021-02-02T18:36:00Z,26.2980,-91.0947,24.8,21.6,11111222
Chevron,ioos:station:wmo:42876:1,2021-02-02T18:46:00Z,26.2980,-91.0947,24.9,21.6,11111222
Chevron,ioos:station:wmo:42876:1,2021-02-02T18:56:00Z,26.2980,-91.0947,24.5,21.6,11111222
Chevron,ioos:station:wmo:42876:1,2021-02-02T19:06:00Z,26.2980,-91.0947,24.5,21.6,11111222
Chevron,ioos:station:wmo:42876:1,2021-02-02T19:16:00Z,26.2980,-91.0947,24.3,21.6,11111222
Chevron,ioos:station:wmo:42876:1,2021-02-02T19:26:00Z,26.2980,-91.0947,24.5,21.6,11111222
Chevron,ioos:station:wmo:42876:1,2021-02-02T19:36:00Z,26.2980,-91.0947,24.8,21.6,11111222